User: anonymous   Login
Location: Unspecified
(0.0000°N, 0.0000°E)
Time: 14:49:20
(UTC+00:00)
Language:

ANNA 1B - Orbit

View from above orbital plane
View from above orbital plane
View from above satellite
View from above satellite

Ground track
Ground track

The orbit data is extracted from the following two-line orbital elements,

1   446U 62060A   17206.27609240 -.00000134 +00000-0 -13871-4 0  9998
2   446 050.1395 217.2575 0070214 092.8448 353.1120 13.35259154669630
Epoch (UTC): 25 July 2017 06:37:34
Eccentricity: 0.0070214
inclination: 50.1395°
perigee height: 1074 km
apogee height: 1179 km
right ascension of ascending node: 217.2575°
argument of perigee: 92.8448°
revolutions per day: 13.35259154
mean anomaly at epoch: 353.1120°
orbit number at epoch: 66963

The dashed part of the orbit path shows where the satellite is in the earth's shadow,  

DLR